Home   Weather   41°05'N, 73°55'W   Past weeks
Flag for USA

Past Weather in 41°05'N, 73°55'W, USA — Yesterday and Last 2 Weeks

Now
85 °F

Clear.


Feels Like: 88 °F
Forecast: 91 / 78 °F
Wind: No wind

Location: New York City - Central Park

Current Time: Jul 16, 2019 at 9:24:11 pm

Latest Report: Jul 16, 2019 at 8:51 pm


Visibility: 10 mi

Pressure: 30.00 "Hg

Humidity: 55%

Dew Point: 67 °F

Location of 41°05'N, 73°55'WLocation

Past Weather in 41°05'N, 73°55'W — Graph

°F

41°05'N, 73°55'W Temperature Yesterday

Maximum temperature yesterday: 85 °F (at 4:51 pm)
Minimum temperature yesterday: 68 °F (at 5:51 am)
Average temperature yesterday: 78 °F

High & Low Weather Summary for the Past Weeks

 TemperatureHumidityPressure
High90 °F (Jul 16, 1:51 pm)97% (Jul 11, 3:36 pm)30.19 "Hg (Jul 11, 3:36 pm)
Low68 °F (Jul 8, 8:51 am)32% (Jul 14, 5:51 pm)29.70 "Hg (Jul 12, 3:51 am)
Average79 °F65%29.94 "Hg
* Reported Jul 1 7:51 pm — Jul 16 7:51 pm, 41°05'N, 73°55'W. Weather by CustomWeather, © 2019

Note: Actual official high and low records may vary slightly from our data, if they occured in-between our weather recording intervals... More about our weather records

Advertising

41°05'N, 73°55'W Weather History for the Previous 24 Hours

Scroll right to see more
 ConditionsComfort  
Time TempWeatherWind HumidityBarometerVisibility
7:51 pm
Tue, Jul 16
85 °FSunny.No wind55%29.99 "Hg10 mi
6:51 pm87 °FSunny.3 mph48%29.99 "Hg10 mi
5:51 pm88 °FSunny.3 mph48%29.98 "Hg10 mi
4:51 pm90 °FSunny.3 mph43%29.99 "Hg10 mi
3:51 pm90 °FPassing clouds.N/A42%30.01 "Hg10 mi
2:51 pm89 °FSunny.8 mph43%30.02 "Hg10 mi
1:51 pm90 °FSunny.N/A39%30.03 "Hg10 mi
12:51 pm88 °FSunny.3 mph39%30.05 "Hg10 mi
11:51 am87 °FSunny.3 mph40%30.06 "Hg10 mi
10:51 am83 °FSunny.8 mph48%30.07 "Hg10 mi
9:51 am81 °FSunny.5 mph51%30.08 "Hg10 mi
8:51 am79 °FSunny.No wind58%30.09 "Hg10 mi
7:51 am76 °FSunny.No wind72%30.08 "Hg10 mi
6:51 am74 °FSunny.No wind69%30.06 "Hg10 mi
5:51 am72 °FSunny.No wind73%30.06 "Hg10 mi
4:51 am73 °FClear.No wind64%30.05 "Hg10 mi
3:51 am75 °FClear.No wind55%30.04 "Hg10 mi
2:51 am74 °FClear.3 mph57%30.05 "Hg10 mi
1:51 am76 °FClear.No wind52%30.06 "Hg10 mi
12:51 am76 °FClear.No wind52%30.05 "Hg10 mi
11:51 pm
Mon, Jul 15
79 °FClear.3 mph48%30.04 "Hg10 mi
10:51 pm81 °FClear.No wind47%30.03 "Hg10 mi
9:51 pm81 °FClear.5 mph45%30.02 "Hg10 mi
Weather by CustomWeather, © 2019

See weather overview